| time (UTC) | temp C | wind direction | speed KPH | gust KPH | rain 1hr cm | rain 24hr cm | rain mn cm | humidity % | barometer mb |
| 20260507192536 | 17 | 0 | 0.0 | 4.8 | 0.03 | 0.03 | 0.03 | 35 | 1004.5 |
| 20260507192036 | 17 | 0 | 0.0 | 6.4 | 0.03 | 0.03 | 0.03 | 37 | 1004.5 |
| 20260507191544 | 17 | 295 | 0.0 | 6.4 | 0.03 | 0.03 | 0.03 | 36 | 1004.6 |
| 20260507191036 | 17 | 37 | 0.0 | 3.2 | 0.03 | 0.03 | 0.03 | 38 | 1004.6 |
| 20260507190537 | 17 | 288 | 0.0 | 8.0 | 0.03 | 0.03 | 0.03 | 37 | 1004.6 |
| 20260507190048 | 17 | 6 | 1.6 | 8.0 | 0.03 | 0.03 | 0.03 | 39 | 1004.5 |
| 20260507185537 | 18 | 0 | 0.0 | 4.8 | 0.03 | 0.03 | 0.03 | 38 | 1004.7 |
| 20260507185037 | 18 | 281 | 0.0 | 4.8 | 0.03 | 0.03 | 0.03 | 38 | 1004.8 |
| 20260507184603 | 18 | 295 | 0.0 | 1.6 | 0.00 | 0.00 | 0.00 | 37 | 1004.9 |
| 20260507184037 | 18 | 269 | 0.0 | 3.2 | 0.00 | 0.00 | 0.00 | 35 | 1004.9 |
| 20260507183540 | 18 | 339 | 0.0 | 4.8 | 0.00 | 0.00 | 0.00 | 40 | 1004.9 |
| 20260507183050 | 18 | 0 | 1.6 | 4.8 | 0.00 | 0.00 | 0.00 | 36 | 1005.0 |
| 20260507182537 | 18 | 300 | 1.6 | 3.2 | 0.00 | 0.00 | 0.00 | 39 | 1005.1 |
| 20260507182037 | 18 | 342 | 0.0 | 1.6 | 0.00 | 0.00 | 0.00 | 40 | 1005.1 |
| 20260507181548 | 18 | 278 | 0.0 | 4.8 | 0.00 | 0.00 | 0.00 | 42 | 1005.1 |
| 20260507181037 | 19 | 315 | 0.0 | 9.7 | 0.00 | 0.00 | 0.00 | 42 | 1005.2 |
| 20260507180538 | 18 | 0 | 1.6 | 9.7 | 0.00 | 0.00 | 0.00 | 41 | 1005.2 |
| 20260507180049 | 18 | 216 | 1.6 | 9.7 | 0.00 | 0.00 | 0.00 | 42 | 1005.2 |
| 20260507175534 | 18 | 227 | 1.6 | 8.0 | 0.00 | 0.00 | 0.00 | 44 | 1005.2 |
| 20260507175034 | 17 | 309 | 0.0 | 1.6 | 0.00 | 0.00 | 0.00 | 45 | 1005.2 |
| 20260507174550 | 17 | 0 | 0.0 | 4.8 | 0.00 | 0.00 | 0.00 | 48 | 1005.2 |
| 20260507174038 | 17 | 300 | 0.0 | 4.8 | 0.00 | 0.00 | 0.00 | 47 | 1005.2 |
| 20260507173538 | 18 | 288 | 0.0 | 3.2 | 0.00 | 0.00 | 0.00 | 48 | 1005.2 |
| 20260507173044 | 18 | 284 | 0.0 | 6.4 | 0.00 | 0.00 | 0.00 | 44 | 1005.2 |
| 20260507172539 | 18 | 0 | 0.0 | 6.4 | 0.00 | 0.00 | 0.00 | 48 | 1005.3 |
| 20260507172038 | 18 | 251 | 1.6 | 8.0 | 0.00 | 0.00 | 0.00 | 47 | 1005.3 |
| 20260507171552 | 18 | 288 | 1.6 | 8.0 | 0.00 | 0.00 | 0.00 | 49 | 1005.3 |
| 20260507171037 | 18 | 265 | 1.6 | 9.7 | 0.00 | 0.00 | 0.00 | 49 | 1005.5 |
| 20260507170534 | 17 | 219 | 1.6 | 9.7 | 0.00 | 0.00 | 0.00 | 51 | 1005.5 |
| 20260507170052 | 16 | 282 | 0.0 | 3.2 | 0.00 | 0.00 | 0.00 | 56 | 1005.6 |
| 20260507165537 | 16 | 283 | 1.6 | 3.2 | 0.00 | 0.00 | 0.00 | 53 | 1005.7 |
| 20260507165035 | 17 | 253 | 0.0 | 1.6 | 0.00 | 0.00 | 0.00 | 52 | 1005.6 |
| 20260507164547 | 17 | 0 | 0.0 | 3.2 | 0.00 | 0.00 | 0.00 | 54 | 1005.6 |
| 20260507164038 | 17 | 0 | 0.0 | 3.2 | 0.00 | 0.00 | 0.00 | 51 | 1005.7 |
| 20260507163537 | 17 | 249 | 0.0 | 1.6 | 0.00 | 0.00 | 0.00 | 52 | 1005.7 |
| 20260507163047 | 17 | 281 | 0.0 | 1.6 | 0.00 | 0.00 | 0.00 | 52 | 1005.8 |
| 20260507162538 | 17 | 210 | 0.0 | 3.2 | 0.00 | 0.00 | 0.00 | 53 | 1005.8 |
| 20260507162038 | 17 | 354 | 0.0 | 8.0 | 0.00 | 0.00 | 0.00 | 54 | 1005.9 |
| 20260507161550 | 17 | 281 | 0.0 | 8.0 | 0.00 | 0.00 | 0.00 | 51 | 1005.8 |
| 20260507161037 | 17 | 220 | 1.6 | 8.0 | 0.00 | 0.00 | 0.00 | 46 | 1006.0 |
| 20260507160537 | 17 | 245 | 1.6 | 6.4 | 0.00 | 0.00 | 0.00 | 52 | 1006.2 |
| 20260507160048 | 16 | 259 | 1.6 | 6.4 | 0.00 | 0.00 | 0.00 | 51 | 1006.2 |
| 20260507155538 | 16 | 262 | 0.0 | 4.8 | 0.00 | 0.00 | 0.00 | 53 | 1006.5 |
| 20260507155037 | 16 | 223 | 1.6 | 3.2 | 0.00 | 0.00 | 0.00 | 48 | 1006.6 |
| 20260507154559 | 17 | 230 | 0.0 | 4.8 | 0.00 | 0.00 | 0.00 | 50 | 1006.6 |
| 20260507154037 | 16 | 233 | 0.0 | 4.8 | 0.00 | 0.00 | 0.00 | 55 | 1006.8 |
| 20260507153537 | 16 | 291 | 1.6 | 4.8 | 0.00 | 0.00 | 0.00 | 57 | 1006.7 |
| 20260507153050 | 16 | 282 | 1.6 | 4.8 | 0.00 | 0.00 | 0.00 | 56 | 1006.8 |
| 20260507152538 | 17 | 274 | 1.6 | 4.8 | 0.00 | 0.00 | 0.00 | 52 | 1006.8 |
| 20260507152038 | 16 | 205 | 0.0 | 3.2 | 0.00 | 0.00 | 0.00 | 56 | 1006.8 |
| 20260507151547 | 16 | 0 | 0.0 | 3.2 | 0.00 | 0.00 | 0.00 | 55 | 1006.9 |
| 20260507151037 | 16 | 347 | 0.0 | 4.8 | 0.00 | 0.00 | 0.00 | 57 | 1006.9 |
| 20260507150538 | 16 | 277 | 1.6 | 4.8 | 0.00 | 0.00 | 0.00 | 53 | 1007.0 |
| 20260507150057 | 16 | 115 | 0.0 | 4.8 | 0.00 | 0.00 | 0.00 | 60 | 1007.0 |
| 20260507145538 | 16 | 30 | 1.6 | 4.8 | 0.00 | 0.00 | 0.00 | 59 | 1007.1 |
| 20260507145037 | 16 | 32 | 1.6 | 4.8 | 0.00 | 0.00 | 0.00 | 59 | 1007.0 |
| 20260507144548 | 15 | 296 | 0.0 | 4.8 | 0.00 | 0.00 | 0.00 | 64 | 1007.0 |
| 20260507144039 | 15 | 287 | 0.0 | 1.6 | 0.00 | 0.00 | 0.00 | 61 | 1007.0 |
| 20260507143537 | 15 | 1 | 0.0 | 1.6 | 0.00 | 0.00 | 0.00 | 62 | 1007.1 |
| 20260507143107 | 15 | 1 | 0.0 | 1.6 | 0.00 | 0.00 | 0.00 | 66 | 1007.1 |
| 20260507142537 | 14 | 1 | 0.0 | 4.8 | 0.00 | 0.00 | 0.00 | 70 | 1007.2 |
| 20260507142037 | 13 | 0 | 0.0 | 4.8 | 0.00 | 0.00 | 0.00 | 67 | 1007.2 |
| 20260507141552 | 14 | 266 | 0.0 | 4.8 | 0.00 | 0.00 | 0.00 | 68 | 1007.3 |
| 20260507141037 | 14 | 276 | 0.0 | 4.8 | 0.00 | 0.00 | 0.00 | 76 | 1007.2 |
| 20260507140537 | 13 | 0 | 0.0 | 4.8 | 0.00 | 0.00 | 0.00 | 77 | 1007.3 |
| 20260507140048 | 13 | 294 | 0.0 | 4.8 | 0.00 | 0.00 | 0.00 | 80 | 1007.2 |
| 20260507135541 | 13 | 252 | 0.0 | 3.2 | 0.00 | 0.00 | 0.00 | 80 | 1007.2 |
| 20260507135037 | 12 | 13 | 0.0 | 1.6 | 0.00 | 0.00 | 0.00 | 80 | 1007.2 |
| 20260507134549 | 12 | 0 | 0.0 | 6.4 | 0.00 | 0.00 | 0.00 | 83 | 1007.2 |
| 20260507134037 | 12 | 288 | 0.0 | 6.4 | 0.00 | 0.00 | 0.00 | 87 | 1007.5 |
| 20260507133537 | 12 | 288 | 0.0 | 6.4 | 0.00 | 0.00 | 0.00 | 86 | 1007.4 |
| 20260507133057 | 12 | 0 | 0.0 | 1.6 | 0.00 | 0.00 | 0.00 | 90 | 1007.2 |
| 20260507132536 | 11 | 0 | 0.0 | 4.8 | 0.00 | 0.00 | 0.00 | 92 | 1007.2 |
| 20260507132037 | 11 | 0 | 0.0 | 4.8 | 0.00 | 0.00 | 0.00 | 92 | 1007.3 |
| 20260507131608 | 11 | 281 | 0.0 | 3.2 | 0.00 | 0.00 | 0.00 | 93 | 1007.5 |
| 20260507131038 | 11 | 278 | 0.0 | 4.8 | 0.00 | 0.00 | 0.00 | 94 | 1007.4 |
| 20260507130537 | 10 | 0 | 0.0 | 4.8 | 0.00 | 0.00 | 0.00 | 95 | 1007.3 |
| 20260507130051 | 10 | 0 | 0.0 | 4.8 | 0.00 | 0.00 | 0.00 | 94 | 1007.3 |
| 20260507125537 | 10 | 277 | 0.0 | 1.6 | 0.00 | 0.00 | 0.00 | 94 | 1007.5 |
| 20260507125037 | 10 | 0 | 0.0 | 1.6 | 0.00 | 0.00 | 0.00 | 94 | 1007.3 |
| 20260507124546 | 9 | 277 | 0.0 | 1.6 | 0.00 | 0.00 | 0.00 | 95 | 1007.4 |
| 20260507124037 | 9 | 0 | 0.0 | 1.6 | 0.00 | 0.00 | 0.00 | 94 | 1007.6 |
| 20260507123537 | 9 | 277 | 0.0 | 1.6 | 0.00 | 0.00 | 0.00 | 94 | 1007.8 |
| 20260507123045 | 9 | 0 | 0.0 | 1.6 | 0.00 | 0.00 | 0.00 | 95 | 1007.8 |
| 20260507122537 | 9 | 269 | 0.0 | 1.6 | 0.00 | 0.00 | 0.00 | 95 | 1007.8 |
| 20260507122038 | 9 | 0 | 0.0 | 1.6 | 0.00 | 0.00 | 0.00 | 95 | 1007.6 |
| 20260507121548 | 9 | 0 | 0.0 | 1.6 | 0.00 | 0.00 | 0.00 | 95 | 1007.5 |
| 20260507121038 | 9 | 0 | 0.0 | 0.0 | 0.00 | 0.00 | 0.00 | 95 | 1007.4 |
| 20260507120537 | 8 | 269 | 0.0 | 1.6 | 0.00 | 0.00 | 0.00 | 95 | 1007.2 |
| 20260507120043 | 8 | 0 | 0.0 | 1.6 | 0.00 | 0.00 | 0.00 | 95 | 1007.2 |
| 20260507115538 | 8 | 0 | 0.0 | 1.6 | 0.00 | 0.00 | 0.00 | 94 | 1007.4 |
| 20260507115037 | 8 | 270 | 0.0 | 1.6 | 0.00 | 0.00 | 0.00 | 94 | 1007.2 |
| 20260507114547 | 8 | 0 | 0.0 | 1.6 | 0.00 | 0.00 | 0.00 | 94 | 1007.2 |
| 20260507114037 | 8 | 0 | 0.0 | 1.6 | 0.00 | 0.00 | 0.00 | 94 | 1007.5 |
| 20260507113538 | 8 | 0 | 0.0 | 1.6 | 0.00 | 0.00 | 0.00 | 95 | 1007.5 |
| 20260507113048 | 9 | 0 | 0.0 | 0.0 | 0.00 | 0.00 | 0.00 | 95 | 1007.1 |
| 20260507112537 | 8 | 0 | 0.0 | 1.6 | 0.00 | 0.00 | 0.00 | 95 | 1007.1 |
| 20260507112037 | 8 | 0 | 0.0 | 1.6 | 0.00 | 0.00 | 0.00 | 95 | 1006.9 |
| 20260507111544 | 9 | 0 | 0.0 | 1.6 | 0.00 | 0.00 | 0.00 | 95 | 1007.3 |
| 20260507111037 | 8 | 0 | 0.0 | 1.6 | 0.00 | 0.00 | 0.00 | 95 | 1007.5 |
| 20260507110536 | 9 | 0 | 0.0 | 1.6 | 0.00 | 0.00 | 0.00 | 95 | 1007.6 |
| 20260507110045 | 9 | 280 | 0.0 | 1.6 | 0.00 | 0.00 | 0.00 | 94 | 1007.1 |
| 20260507105536 | 9 | 0 | 0.0 | 1.6 | 0.00 | 0.00 | 0.00 | 95 | 1006.7 |
| 20260507105038 | 9 | 0 | 0.0 | 1.6 | 0.00 | 0.00 | 0.00 | 94 | 1006.7 |
| 20260507104543 | 9 | 280 | 0.0 | 1.6 | 0.00 | 0.00 | 0.00 | 94 | 1006.9 |
| 20260507104038 | 9 | 280 | 0.0 | 3.2 | 0.00 | 0.00 | 0.00 | 94 | 1006.9 |
| 20260507103538 | 9 | 0 | 0.0 | 3.2 | 0.00 | 0.00 | 0.00 | 94 | 1007.1 |
| 20260507103045 | 9 | 278 | 0.0 | 3.2 | 0.00 | 0.00 | 0.00 | 94 | 1007.1 |
| 20260507102538 | 9 | 0 | 0.0 | 1.6 | 0.00 | 0.00 | 0.00 | 94 | 1007.0 |
| 20260507102038 | 9 | 296 | 0.0 | 3.2 | 0.00 | 0.00 | 0.00 | 94 | 1007.4 |
| 20260507101547 | 9 | 283 | 1.6 | 3.2 | 0.00 | 0.00 | 0.00 | 94 | 1007.1 |
| 20260507101038 | 9 | 0 | 0.0 | 3.2 | 0.00 | 0.00 | 0.00 | 94 | 1006.9 |
| 20260507100537 | 9 | 0 | 0.0 | 1.6 | 0.00 | 0.00 | 0.00 | 94 | 1007.0 |
| 20260507100049 | 9 | 277 | 0.0 | 1.6 | 0.00 | 0.00 | 0.00 | 94 | 1006.8 |
| 20260507095537 | 9 | 0 | 0.0 | 1.6 | 0.00 | 0.00 | 0.00 | 94 | 1006.9 |
| 20260507095037 | 10 | 276 | 0.0 | 1.6 | 0.00 | 0.00 | 0.00 | 94 | 1006.7 |
| 20260507094546 | 10 | 0 | 0.0 | 1.6 | 0.00 | 0.00 | 0.00 | 94 | 1006.6 |
| 20260507094038 | 10 | 0 | 0.0 | 1.6 | 0.00 | 0.00 | 0.00 | 94 | 1006.7 |
| 20260507093537 | 10 | 0 | 0.0 | 1.6 | 0.00 | 0.00 | 0.00 | 93 | 1006.7 |
| 20260507093055 | 10 | 279 | 0.0 | 1.6 | 0.00 | 0.00 | 0.00 | 94 | 1006.4 |
| 20260507092538 | 10 | 279 | 0.0 | 1.6 | 0.00 | 0.00 | 0.00 | 93 | 1006.7 |
| 20260507092037 | 10 | 0 | 0.0 | 4.8 | 0.00 | 0.00 | 0.00 | 94 | 1007.0 |
| 20260507091548 | 10 | 276 | 1.6 | 4.8 | 0.00 | 0.00 | 0.00 | 93 | 1006.6 |
| 20260507091038 | 10 | 274 | 3.2 | 4.8 | 0.00 | 0.00 | 0.00 | 93 | 1006.5 |
| 20260507090538 | 11 | 274 | 0.0 | 3.2 | 0.00 | 0.00 | 0.00 | 94 | 1006.1 |
| 20260507090047 | 11 | 0 | 0.0 | 3.2 | 0.00 | 0.00 | 0.00 | 94 | 1005.9 |
| 20260507085537 | 11 | 279 | 0.0 | 1.6 | 0.00 | 0.00 | 0.00 | 94 | 1006.0 |
| 20260507085039 | 11 | 278 | 0.0 | 1.6 | 0.00 | 0.00 | 0.00 | 94 | 1005.7 |
| 20260507084550 | 11 | 278 | 0.0 | 1.6 | 0.00 | 0.00 | 0.00 | 94 | 1005.7 |
| 20260507084037 | 11 | 278 | 0.0 | 1.6 | 0.00 | 0.00 | 0.00 | 94 | 1006.0 |
| 20260507083537 | 11 | 0 | 0.0 | 1.6 | 0.00 | 0.00 | 0.00 | 94 | 1005.5 |
| 20260507083049 | 11 | 0 | 0.0 | 3.2 | 0.00 | 0.00 | 0.00 | 94 | 1005.9 |
| 20260507082537 | 11 | 278 | 0.0 | 3.2 | 0.00 | 0.00 | 0.00 | 94 | 1006.1 |
| 20260507082039 | 12 | 276 | 0.0 | 3.2 | 0.00 | 0.00 | 0.00 | 94 | 1005.8 |
| 20260507081546 | 12 | 285 | 0.0 | 3.2 | 0.00 | 0.00 | 0.00 | 94 | 1005.9 |
| 20260507081038 | 12 | 288 | 1.6 | 4.8 | 0.00 | 0.00 | 0.00 | 94 | 1006.1 |
| 20260507080537 | 12 | 278 | 1.6 | 4.8 | 0.00 | 0.00 | 0.00 | 94 | 1005.9 |
| 20260507080046 | 12 | 277 | 0.0 | 4.8 | 0.00 | 0.00 | 0.00 | 94 | 1005.8 |
| 20260507075538 | 13 | 0 | 0.0 | 4.8 | 0.00 | 0.00 | 0.00 | 95 | 1005.6 |
| 20260507075037 | 13 | 304 | 0.0 | 1.6 | 0.00 | 0.00 | 0.00 | 95 | 1005.6 |
| 20260507074551 | 13 | 232 | 0.0 | 1.6 | 0.00 | 0.00 | 0.00 | 95 | 1005.3 |
| 20260507074037 | 13 | 0 | 0.0 | 1.6 | 0.00 | 0.00 | 0.00 | 95 | 1005.1 |
| 20260507073537 | 12 | 0 | 0.0 | 0.0 | 0.00 | 0.00 | 0.00 | 95 | 1004.7 |
| 20260507073048 | 12 | 0 | 0.0 | 0.0 | 0.00 | 0.00 | 0.00 | 95 | 1004.9 |
| 20260507072538 | 12 | 0 | 0.0 | 0.0 | 0.00 | 0.00 | 0.00 | 95 | 1004.8 |
| 20260507072037 | 12 | 0 | 0.0 | 0.0 | 0.00 | 0.00 | 0.00 | 95 | 1004.9 |
| 20260507071606 | 12 | 0 | 0.0 | 0.0 | 0.00 | 0.00 | 0.00 | 95 | 1005.1 |
| 20260507071038 | 12 | 0 | 0.0 | 0.0 | 0.00 | 0.00 | 0.00 | 95 | 1005.2 |
| 20260507070537 | 12 | 0 | 0.0 | 0.0 | 0.00 | 0.00 | 0.00 | 94 | 1005.1 |
| 20260507070045 | 12 | 0 | 0.0 | 0.0 | 0.00 | 0.00 | 0.00 | 94 | 1005.1 |
| 20260507065537 | 12 | 0 | 0.0 | 0.0 | 0.00 | 0.00 | 0.00 | 94 | 1005.1 |
| 20260507065037 | 13 | 0 | 0.0 | 0.0 | 0.00 | 0.00 | 0.00 | 94 | 1005.1 |
| 20260507064542 | 13 | 0 | 0.0 | 0.0 | 0.00 | 0.00 | 0.00 | 94 | 1005.1 |
| 20260507064037 | 13 | 0 | 0.0 | 0.0 | 0.00 | 0.00 | 0.00 | 94 | 1004.9 |
| 20260507063538 | 13 | 0 | 0.0 | 0.0 | 0.00 | 0.00 | 0.00 | 94 | 1005.0 |
| 20260507063048 | 13 | 0 | 0.0 | 0.0 | 0.00 | 0.00 | 0.00 | 94 | 1004.9 |
| 20260507062538 | 13 | 0 | 0.0 | 0.0 | 0.00 | 0.00 | 0.00 | 94 | 1005.0 |
| 20260507062038 | 13 | 0 | 0.0 | 0.0 | 0.00 | 0.00 | 0.00 | 94 | 1005.3 |
| 20260507061545 | 13 | 0 | 0.0 | 1.6 | 0.00 | 0.00 | 0.00 | 94 | 1005.3 |
| 20260507061038 | 13 | 0 | 0.0 | 1.6 | 0.00 | 0.00 | 0.00 | 94 | 1005.5 |
| 20260507060538 | 13 | 0 | 0.0 | 1.6 | 0.00 | 0.00 | 0.00 | 94 | 1005.6 |
| 20260507060049 | 13 | 0 | 0.0 | 1.6 | 0.00 | 0.00 | 0.00 | 94 | 1005.5 |
| 20260507055538 | 13 | 231 | 0.0 | 1.6 | 0.00 | 0.00 | 0.00 | 94 | 1005.6 |
| 20260507055037 | 13 | 0 | 0.0 | 1.6 | 0.00 | 0.00 | 0.00 | 94 | 1005.7 |
| 20260507054545 | 13 | 0 | 0.0 | 1.6 | 0.00 | 0.00 | 0.00 | 94 | 1005.5 |
| 20260507054037 | 13 | 0 | 0.0 | 1.6 | 0.00 | 0.00 | 0.00 | 94 | 1005.6 |
| 20260507053538 | 13 | 0 | 0.0 | 6.4 | 0.00 | 0.00 | 0.00 | 94 | 1005.6 |
| 20260507053111 | 13 | 221 | 0.0 | 6.4 | 0.00 | 0.00 | 0.00 | 94 | 1005.6 |
| 20260507052538 | 13 | 240 | 0.0 | 3.2 | 0.00 | 0.00 | 0.00 | 94 | 1005.6 |
| 20260507052037 | 13 | 79 | 0.0 | 0.0 | 0.00 | 0.00 | 0.00 | 94 | 1005.7 |
| 20260507051552 | 13 | 0 | 0.0 | 4.8 | 0.00 | 0.00 | 0.00 | 94 | 1005.7 |
| 20260507051037 | 13 | 0 | 0.0 | 4.8 | 0.00 | 0.00 | 0.00 | 94 | 1005.8 |
| 20260507050538 | 13 | 101 | 1.6 | 3.2 | 0.00 | 0.00 | 0.00 | 94 | 1005.9 |
| 20260507050046 | 13 | 222 | 0.0 | 9.7 | 0.00 | 0.00 | 0.00 | 94 | 1006.1 |
| 20260507045539 | 13 | 0 | 0.0 | 9.7 | 0.00 | 0.00 | 0.00 | 94 | 1006.0 |
| 20260507045039 | 13 | 271 | 0.0 | 9.7 | 0.00 | 0.00 | 0.00 | 94 | 1006.0 |
| 20260507044546 | 13 | 0 | 0.0 | 1.6 | 0.00 | 0.00 | 0.00 | 94 | 1005.9 |
| 20260507044037 | 13 | 246 | 0.0 | 3.2 | 0.00 | 0.00 | 0.00 | 94 | 1005.9 |
| 20260507043537 | 13 | 0 | 0.0 | 3.2 | 0.00 | 0.00 | 0.00 | 94 | 1005.8 |
| 20260507043047 | 13 | 218 | 0.0 | 3.2 | 0.00 | 0.00 | 0.00 | 94 | 1006.0 |
| 20260507042537 | 13 | 184 | 0.0 | 3.2 | 0.00 | 0.00 | 0.00 | 94 | 1005.7 |
| 20260507042037 | 13 | 0 | 0.0 | 1.6 | 0.00 | 0.00 | 0.00 | 94 | 1005.8 |
| 20260507041549 | 13 | 0 | 0.0 | 3.2 | 0.00 | 0.00 | 0.00 | 94 | 1005.9 |
| 20260507041037 | 13 | 0 | 0.0 | 3.2 | 0.00 | 0.00 | 0.00 | 94 | 1005.8 |
| 20260507040538 | 13 | 0 | 0.0 | 3.2 | 0.00 | 0.00 | 0.00 | 94 | 1005.8 |
| 20260507040053 | 13 | 0 | 0.0 | 4.8 | 0.00 | 0.00 | 0.00 | 94 | 1006.0 |
| 20260507035538 | 13 | 60 | 0.0 | 4.8 | 0.00 | 0.00 | 0.00 | 94 | 1006.0 |
| 20260507035037 | 13 | 226 | 0.0 | 14.5 | 0.00 | 0.00 | 0.00 | 94 | 1006.1 |
| 20260507034550 | 13 | 266 | 0.0 | 14.5 | 0.00 | 0.00 | 0.00 | 94 | 1006.3 |
| 20260507034037 | 13 | 0 | 1.6 | 9.7 | 0.00 | 0.00 | 0.00 | 94 | 1006.4 |
| 20260507033538 | 13 | 324 | 1.6 | 9.7 | 0.00 | 0.00 | 0.00 | 94 | 1006.1 |
| 20260507033051 | 13 | 312 | 0.0 | 3.2 | 0.00 | 0.00 | 0.00 | 94 | 1006.1 |
| 20260507032539 | 13 | 0 | 0.0 | 9.7 | 0.00 | 0.00 | 0.00 | 94 | 1006.0 |
| 20260507032037 | 13 | 255 | 0.0 | 9.7 | 0.00 | 0.00 | 0.00 | 94 | 1006.1 |
| 20260507031553 | 13 | 284 | 3.2 | 9.7 | 0.00 | 0.00 | 0.00 | 94 | 1006.0 |
| 20260507031040 | 13 | 274 | 0.0 | 6.4 | 0.00 | 0.00 | 0.00 | 94 | 1005.8 |
| 20260507030537 | 13 | 233 | 1.6 | 4.8 | 0.00 | 0.00 | 0.00 | 94 | 1005.9 |
| 20260507030050 | 13 | 287 | 0.0 | 6.4 | 0.00 | 0.00 | 0.00 | 94 | 1005.9 |
| 20260507025537 | 13 | 323 | 0.0 | 6.4 | 0.00 | 0.00 | 0.00 | 94 | 1005.8 |
| 20260507025037 | 13 | 302 | 0.0 | 8.0 | 0.00 | 0.00 | 0.00 | 94 | 1005.7 |
| 20260507024544 | 13 | 237 | 1.6 | 8.0 | 0.00 | 0.00 | 0.00 | 94 | 1005.5 |
| 20260507024038 | 13 | 0 | 0.0 | 4.8 | 0.00 | 0.00 | 0.00 | 94 | 1005.4 |
| 20260507023537 | 13 | 0 | 0.0 | 4.8 | 0.00 | 0.00 | 0.00 | 94 | 1005.7 |
| 20260507023047 | 13 | 267 | 0.0 | 9.7 | 0.00 | 0.00 | 0.00 | 94 | 1005.7 |
| 20260507022537 | 13 | 0 | 0.0 | 9.7 | 0.00 | 0.00 | 0.00 | 94 | 1005.6 |
| 20260507022039 | 13 | 266 | 3.2 | 9.7 | 0.00 | 0.00 | 0.00 | 94 | 1005.7 |
| 20260507021545 | 13 | 268 | 0.0 | 6.4 | 0.00 | 0.00 | 0.00 | 94 | 1005.7 |
| 20260507021038 | 13 | 238 | 1.6 | 6.4 | 0.00 | 0.00 | 0.00 | 94 | 1006.0 |
| 20260507020538 | 13 | 238 | 0.0 | 4.8 | 0.00 | 0.00 | 0.00 | 94 | 1006.0 |
| 20260507020047 | 13 | 0 | 0.0 | 6.4 | 0.00 | 0.00 | 0.00 | 94 | 1006.3 |
| 20260507015537 | 13 | 283 | 0.0 | 6.4 | 0.00 | 0.00 | 0.00 | 94 | 1006.4 |
| 20260507015038 | 13 | 288 | 1.6 | 6.4 | 0.00 | 0.00 | 0.00 | 94 | 1006.2 |
| 20260507014601 | 13 | 218 | 1.6 | 6.4 | 0.00 | 0.00 | 0.00 | 94 | 1006.3 |
| 20260507014038 | 13 | 70 | 0.0 | 6.4 | 0.00 | 0.00 | 0.00 | 94 | 1006.5 |
| 20260507013538 | 13 | 240 | 1.6 | 6.4 | 0.00 | 0.00 | 0.00 | 94 | 1006.5 |
| 20260507013050 | 13 | 57 | 0.0 | 8.0 | 0.00 | 0.00 | 0.00 | 94 | 1006.4 |
| 20260507012537 | 13 | 233 | 1.6 | 8.0 | 0.00 | 0.00 | 0.00 | 94 | 1006.5 |
| 20260507012037 | 13 | 288 | 1.6 | 8.0 | 0.00 | 0.00 | 0.00 | 94 | 1006.5 |
| 20260507011545 | 13 | 218 | 1.6 | 8.0 | 0.00 | 0.00 | 0.00 | 94 | 1006.5 |
| 20260507011038 | 13 | 270 | 0.0 | 8.0 | 0.00 | 0.00 | 0.00 | 94 | 1006.6 |
| 20260507010537 | 13 | 224 | 1.6 | 8.0 | 0.00 | 0.00 | 0.00 | 94 | 1006.5 |
| 20260507010054 | 13 | 285 | 1.6 | 8.0 | 0.00 | 0.00 | 0.00 | 94 | 1006.5 |
| 20260507005535 | 13 | 235 | 0.0 | 8.0 | 0.00 | 0.00 | 0.00 | 93 | 1006.6 |
| 20260507005036 | 13 | 263 | 1.6 | 8.0 | 0.00 | 0.00 | 0.00 | 93 | 1006.6 |
| 20260507004559 | 13 | 235 | 1.6 | 9.7 | 0.00 | 0.00 | 0.00 | 93 | 1006.6 |
| 20260507004036 | 13 | 254 | 0.0 | 9.7 | 0.00 | 0.00 | 0.00 | 93 | 1006.6 |
| 20260507003538 | 13 | 193 | 3.2 | 9.7 | 0.00 | 0.00 | 0.00 | 93 | 1006.6 |
| 20260507003046 | 13 | 279 | 1.6 | 14.5 | 0.00 | 0.00 | 0.00 | 93 | 1006.7 |
| 20260507002538 | 13 | 221 | 1.6 | 14.5 | 0.00 | 0.00 | 0.00 | 93 | 1006.6 |
| 20260507002038 | 13 | 281 | 3.2 | 11.3 | 0.00 | 0.00 | 0.00 | 93 | 1006.6 |
| 20260507001551 | 13 | 217 | 1.6 | 11.3 | 0.00 | 0.00 | 0.00 | 94 | 1006.4 |
| 20260507001037 | 13 | 253 | 3.2 | 17.7 | 0.00 | 0.00 | 0.00 | 94 | 1006.4 |
| 20260507000538 | 13 | 29 | 3.2 | 17.7 | 0.00 | 0.00 | 0.00 | 94 | 1006.6 |
| 20260507000048 | 13 | 306 | 3.2 | 16.1 | 0.00 | 0.00 | 0.00 | 94 | 1006.5 |
| 20260506235539 | 13 | 0 | 1.6 | 19.3 | 0.00 | 0.00 | 0.00 | 94 | 1006.6 |
| 20260506235038 | 13 | 279 | 1.6 | 19.3 | 0.00 | 0.00 | 0.00 | 93 | 1006.4 |
| 20260506234545 | 13 | 280 | 3.2 | 14.5 | 0.00 | 0.00 | 0.00 | 93 | 1006.5 |
| 20260506234040 | 13 | 202 | 1.6 | 14.5 | 0.00 | 0.00 | 0.00 | 93 | 1006.5 |
| 20260506233540 | 13 | 56 | 0.0 | 9.7 | 0.00 | 0.00 | 0.00 | 93 | 1006.5 |
| 20260506233052 | 13 | 88 | 1.6 | 9.7 | 0.00 | 0.00 | 0.00 | 93 | 1006.5 |
| 20260506232537 | 13 | 289 | 3.2 | 9.7 | 0.00 | 0.00 | 0.00 | 92 | 1006.6 |
| 20260506232035 | 13 | 0 | 0.0 | 8.0 | 0.00 | 0.00 | 0.00 | 92 | 1006.7 |
| 20260506231546 | 13 | 99 | 0.0 | 8.0 | 0.00 | 0.00 | 0.00 | 92 | 1006.6 |
| 20260506231038 | 13 | 272 | 0.0 | 8.0 | 0.00 | 0.00 | 0.00 | 92 | 1006.5 |
| 20260506230537 | 14 | 127 | 0.0 | 3.2 | 0.00 | 0.00 | 0.00 | 91 | 1006.5 |
| 20260506230051 | 14 | 233 | 0.0 | 8.0 | 0.00 | 0.00 | 0.00 | 91 | 1006.5 |
| 20260506225541 | 14 | 216 | 0.0 | 8.0 | 0.00 | 0.00 | 0.00 | 91 | 1006.5 |
| 20260506225038 | 14 | 223 | 3.2 | 8.0 | 0.00 | 0.00 | 0.00 | 90 | 1006.6 |
| 20260506224549 | 14 | 213 | 1.6 | 8.0 | 0.00 | 0.00 | 0.00 | 90 | 1006.7 |
| 20260506224039 | 15 | 0 | 1.6 | 22.5 | 0.00 | 0.00 | 0.00 | 89 | 1006.6 |
| 20260506223537 | 15 | 291 | 1.6 | 22.5 | 0.00 | 0.00 | 0.00 | 89 | 1006.6 |
| 20260506223045 | 15 | 257 | 3.2 | 11.3 | 0.00 | 0.00 | 0.00 | 89 | 1007.0 |
| 20260506222538 | 15 | 251 | 3.2 | 11.3 | 0.00 | 0.00 | 0.00 | 89 | 1006.9 |
| 20260506222038 | 15 | 0 | 3.2 | 11.3 | 0.00 | 0.00 | 0.00 | 89 | 1006.9 |
| 20260506221545 | 15 | 243 | 3.2 | 11.3 | 0.00 | 0.00 | 0.00 | 89 | 1006.9 |
| 20260506221037 | 15 | 189 | 3.2 | 8.0 | 0.00 | 0.00 | 0.00 | 89 | 1007.0 |
| 20260506220537 | 15 | 210 | 3.2 | 8.0 | 0.00 | 0.00 | 0.00 | 89 | 1007.0 |
| 20260506220049 | 15 | 271 | 1.6 | 6.4 | 0.00 | 0.00 | 0.00 | 89 | 1007.0 |
| 20260506215537 | 15 | 226 | 0.0 | 11.3 | 0.00 | 0.00 | 0.00 | 89 | 1007.0 |
| 20260506215039 | 15 | 207 | 1.6 | 11.3 | 0.00 | 0.00 | 0.00 | 89 | 1007.0 |
| 20260506214600 | 15 | 140 | 3.2 | 11.3 | 0.00 | 0.00 | 0.00 | 88 | 1007.1 |
| 20260506214036 | 15 | 205 | 1.6 | 8.0 | 0.00 | 0.00 | 0.00 | 88 | 1006.9 |
| 20260506213541 | 15 | 0 | 0.0 | 4.8 | 0.00 | 0.00 | 0.00 | 87 | 1007.1 |
| 20260506213049 | 16 | 235 | 1.6 | 12.9 | 0.00 | 0.00 | 0.00 | 87 | 1007.1 |
| 20260506212538 | 16 | 264 | 1.6 | 12.9 | 0.00 | 0.00 | 0.00 | 86 | 1007.2 |
| 20260506212038 | 16 | 244 | 3.2 | 12.9 | 0.00 | 0.00 | 0.00 | 85 | 1007.2 |
| 20260506211603 | 16 | 84 | 1.6 | 11.3 | 0.00 | 0.00 | 0.00 | 85 | 1007.3 |
| 20260506211038 | 16 | 260 | 1.6 | 11.3 | 0.00 | 0.00 | 0.00 | 85 | 1007.3 |
| 20260506210537 | 16 | 280 | 3.2 | 11.3 | 0.00 | 0.00 | 0.00 | 85 | 1007.2 |
| 20260506210050 | 16 | 102 | 1.6 | 11.3 | 0.00 | 0.00 | 0.00 | 85 | 1007.3 |
| 20260506205534 | 15 | 280 | 1.6 | 9.7 | 0.00 | 0.00 | 0.00 | 85 | 1007.4 |
| 20260506205034 | 15 | 0 | 3.2 | 16.1 | 0.00 | 0.00 | 0.00 | 86 | 1007.4 |
| 20260506204549 | 15 | 0 | 1.6 | 16.1 | 0.00 | 0.00 | 0.00 | 86 | 1007.5 |
| 20260506204033 | 15 | 254 | 3.2 | 12.9 | 0.00 | 0.00 | 0.00 | 87 | 1007.4 |
| 20260506203534 | 15 | 153 | 1.6 | 11.3 | 0.00 | 0.00 | 0.00 | 87 | 1007.6 |
| 20260506203045 | 15 | 202 | 1.6 | 11.3 | 0.00 | 0.00 | 0.00 | 87 | 1007.5 |
| 20260506202536 | 15 | 83 | 3.2 | 17.7 | 0.00 | 0.00 | 0.00 | 87 | 1007.7 |
| 20260506202036 | 15 | 34 | 1.6 | 17.7 | 0.00 | 0.00 | 0.00 | 87 | 1007.7 |
| 20260506201548 | 15 | 251 | 3.2 | 17.7 | 0.00 | 0.00 | 0.00 | 86 | 1007.7 |
| 20260506201036 | 15 | 257 | 3.2 | 9.7 | 0.00 | 0.00 | 0.00 | 84 | 1007.9 |
| 20260506200535 | 16 | 237 | 1.6 | 9.7 | 0.00 | 0.00 | 0.00 | 83 | 1007.9 |
| 20260506200049 | 16 | 196 | 0.0 | 9.7 | 0.00 | 0.00 | 0.00 | 81 | 1007.9 |
| 20260506195536 | 16 | 289 | 1.6 | 14.5 | 0.00 | 0.00 | 0.00 | 78 | 1007.9 |
| 20260506195038 | 17 | 236 | 1.6 | 14.5 | 0.00 | 0.00 | 0.00 | 77 | 1007.9 |
| 20260506194544 | 17 | 246 | 3.2 | 14.5 | 0.00 | 0.00 | 0.00 | 75 | 1008.0 |
| 20260506194039 | 17 | 203 | 1.6 | 14.5 | 0.00 | 0.00 | 0.00 | 74 | 1007.9 |
| 20260506193536 | 17 | 243 | 4.8 | 14.5 | 0.00 | 0.00 | 0.00 | 74 | 1007.9 |
| 20260506193042 | 17 | 290 | 4.8 | 17.7 | 0.00 | 0.00 | 0.00 | 74 | 1008.0 |